STARLINK-1657 (46354 NORAD) Tracking and Keplerian Element Data

This shows tracking and keplerian element data for the satellite.

Feedback or suggestion? Click here.




ElementValue
Catalog46354
NameSTARLINK-1657
Epoch Orbit179
Epoch Day335.91670139
Epoch Year2020
RAAN17.2605
Inclination53.0009
Eccentricity0.0001246
Argument of Perigee81.675
Mean Anonmoly217.6466
Mean Motion15.05587638
Decay Rate6.338E-05
L11 46354U 20062AF 20335.91670139 .00006338 00000-0 45370-3 0 9993
L22 46354 53.0009 17.2605 0001246 81.6750 217.6466 15.05587638 1799

Live tracking and technical data element details for STARLINK-1657 (NORAD 46354). STARLINK-1657 can be tracked NOW for your location showing map with azimuth and elevation plus other details from your city location.

Track the satellite on the map from your city or location and see movement details for azimuth, elevation, latitude, longitude, range, height, and movement on the map or in text.







IsCatalogInMostPopularTable: catalog: 46354, numindb: 26
Update: records affected: 1



GetName: 46354 STARLINK-1657

Hit Count: updated at: Tue, 01 Dec 2020 21:36:10 GMT